Temp
-15 -15 -14 -14 -14 -14 -14 -15 -15 -15 -15 -15 -15 -14 -14 -13 -13 -13 -13 -13 -12 -12 -11 -10 -9 -9 -8 -8 -8 -8 -7 -7 -7 -6 -6 -6 -6 -6 -6 -6 -5 -5
-16 -15 -15 -15 -15 -15 -15 -15 -15 -15 -15 -15 -15 -14 -14 -14 -14 -14 -13 -13 -12 -12 -12 -11 -10 -9 -9 -9 -8 -8 -7 -7 -7 -7 -7 -7 -6 -6 -6 -6 -5 -6
-17 -16 -16 -16 -16 -16 -16 -16 -16 -16 -16 -16 -15 -15 -15 -14 -14 -14 -13 -12 -12 -12 -12 -12 -11 -10 -9 -9 -8 -8 -8 -7 -7 -7 -7 -7 -7 -6 -6 -6 -6 -6
-17 -17 -17 -17 -17 -17 -17 -17 -17 -17 -16 -16 -16 -15 -15 -15 -15 -14 -13 -13 -12 -12 -12 -11 -11 -10 -9 -9 -9 -8 -8 -8 -7 -7 -7 -7 -7 -7 -6 -6 -6 -6
-18 -18 -18 -18 -18 -18 -17 -17 -17 -17 -17 -17 -16 -16 -16 -15 -15 -14 -14 -13 -13 -12 -11 -11 -11 -11 -10 -9 -9 -8 -8 -8 -7 -7 -7 -7 -7 -7 -7 -6 -6 -6
-18 -18 -18 -18 -18 -18 -18 -18 -18 -18 -18 -17 -17 -17 -17 -16 -15 -15 -15 -14 -13 -12 -12 -11 -11 -11 -10 -10 -9 -9 -8 -8 -8 -7 -7 -7 -7 -7 -7 -7 -6 -6
-19 -19 -19 -19 -19 -19 -19 -19 -19 -18 -18 -18 -18 -17 -17 -16 -16 -15 -15 -14 -13 -13 -12 -11 -11 -10 -10 -10 -9 -9 -8 -8 -7 -7 -7 -7 -7 -7 -7 -7 -6 -6
-19 -19 -20 -19 -19 -19 -19 -19 -19 -19 -18 -18 -18 -18 -17 -17 -16 -15 -15 -14 -13 -13 -12 -11 -11 -10 -10 -10 -9 -9 -8 -8 -7 -7 -7 -7 -7 -7 -7 -7 -7 -7
-20 -20 -20 -20 -20 -20 -20 -20 -19 -19 -19 -18 -18 -18 -17 -17 -16 -15 -15 -14 -14 -13 -12 -12 -11 -10 -10 -9 -9 -9 -9 -8 -8 -7 -7 -7 -7 -7 -7 -7 -7 -7
-20 -20 -20 -20 -20 -20 -20 -20 -20 -20 -19 -19 -18 -18 -18 -17 -16 -15 -15 -15 -14 -14 -13 -12 -12 -11 -10 -9 -9 -9 -9 -9 -8 -8 -8 -8 -8 -7 -7 -7 -7 -7
-20 -20 -20 -20 -20 -20 -20 -20 -20 -20 -20 -19 -19 -19 -18 -17 -17 -16 -16 -15 -15 -14 -14 -13 -12 -11 -11 -10 -9 -9 -9 -8 -8 -8 -8 -8 -8 -8 -8 -8 -8 -8
-20 -20 -20 -20 -20 -20 -20 -20 -20 -20 -20 -19 -19 -19 -18 -17 -17 -17 -16 -16 -15 -15 -14 -13 -12 -11 -11 -10 -10 -10 -9 -9 -9 -8 -8 -8 -8 -8 -8 -8 -8 -8
-20 -20 -20 -20 -20 -21 -20 -20 -20 -20 -20 -20 -19 -19 -18 -17 -16 -16 -16 -16 -15 -15 -14 -13 -12 -11 -11 -11 -10 -10 -10 -9 -9 -9 -8 -8 -8 -8 -7 -7 -7 -7
-20 -20 -21 -21 -20 -20 -20 -20 -20 -20 -20 -20 -19 -18 -18 -17 -16 -16 -16 -15 -15 -14 -14 -13 -12 -11 -11 -11 -10 -10 -10 -10 -9 -9 -8 -8 -8 -8 -8 -7 -7 -7
-21 -21 -21 -21 -20 -20 -20 -20 -20 -20 -20 -20 -19 -18 -18 -17 -16 -16 -15 -15 -14 -14 -13 -13 -12 -11 -11 -10 -10 -10 -10 -10 -9 -9 -9 -8 -8 -8 -8 -7 -7 -7
-21 -21 -21 -21 -21 -21 -20 -20 -20 -20 -20 -20 -19 -18 -17 -17 -16 -16 -15 -15 -14 -14 -14 -13 -12 -11 -11 -11 -10 -10 -10 -10 -9 -9 -9 -8 -8 -8 -7 -7 -7 -7
-21 -21 -21 -21 -21 -21 -21 -21 -20 -20 -20 -19 -19 -18 -17 -16 -16 -15 -15 -14 -14 -14 -14 -13 -12 -12 -11 -11 -10 -10 -10 -10 -10 -9 -9 -8 -8 -8 -7 -7 -7 -7
-21 -21 -21 -21 -21 -21 -21 -20 -20 -20 -19 -19 -18 -17 -16 -15 -15 -14 -14 -14 -14 -13 -13 -13 -13 -12 -11 -11 -11 -10 -10 -10 -10 -9 -9 -8 -8 -8 -7 -7 -7 -7
-21 -21 -21 -21 -21 -21 -20 -20 -20 -19 -18 -18 -17 -16 -15 -15 -14 -14 -13 -13 -13 -13 -12 -13 -12 -12 -11 -11 -11 -10 -10 -10 -10 -9 -9 -8 -8 -7 -7 -7 -7 -7
-22 -21 -21 -21 -21 -20 -20 -19 -19 -18 -18 -17 -16 -15 -15 -14 -13 -13 -12 -12 -12 -12 -11 -11 -11 -11 -11 -11 -10 -10 -10 -10 -9 -9 -9 -9 -8 -8 -8 -7 -7 -7
-21 -21 -21 -21 -20 -20 -19 -19 -18 -17 -17 -16 -15 -15 -14 -13 -13 -12 -11 -11 -11 -11 -10 -10 -10 -10 -10 -10 -9 -9 -9 -9 -9 -9 -9 -9 -8 -8 -8 -8 -7 -7
-21 -21 -20 -20 -19 -19 -19 -18 -17 -17 -16 -15 -15 -14 -13 -13 -12 -11 -11 -10 -10 -10 -10 -9 -9 -9 -9 -9 -9 -9 -8 -8 -8 -8 -8 -8 -8 -8 -8 -7 -7 -7
-21 -21 -20 -20 -19 -19 -18 -17 -17 -16 -15 -15 -14 -13 -12 -12 -11 -11 -10 -10 -10 -10 -10 -9 -9 -8 -8 -8 -8 -8 -8 -8 -8 -8 -8 -8 -8 -8 -8 -7 -7 -7
-20 -20 -20 -19 -19 -18 -17 -17 -16 -15 -14 -14 -13 -12 -11 -11 -11 -11 -10 -10 -10 -10 -10 -10 -9 -8 -8 -8 -8 -8 -8 -8 -8 -8 -8 -7 -7 -7 -7 -7 -7 -7
-20 -19 -19 -18 -18 -17 -17 -16 -15 -14 -13 -13 -12 -12 -11 -11 -11 -11 -11 -11 -11 -11 -10 -10 -9 -9 -8 -8 -8 -8 -8 -8 -8 -8 -8 -8 -8 -7 -7 -7 -7 -7
-19 -19 -18 -17 -17 -16 -16 -15 -15 -14 -13 -13 -12 -12 -11 -11 -11 -11 -11 -11 -11 -11 -11 -10 -10 -9 -8 -8 -8 -8 -8 -8 -8 -8 -8 -8 -8 -8 -8 -7 -7 -7
Height
1422 1420 1418 1416 1413 1410 1408 1406 1404 1403 1401 1400 1399 1398 1398 1397 1395 1395 1393 1393 1392 1391 1390 1390 1390 1391 1392 1392 1393 1394 1394 1395 1396 1398 1399 1399 1400 1401 1402 1402 1403 1404
1417 1415 1413 1411 1408 1406 1403 1402 1400 1398 1396 1395 1394 1393 1393 1391 1390 1389 1388 1387 1387 1386 1386 1385 1385 1386 1387 1388 1389 1389 1389 1390 1391 1393 1394 1395 1396 1397 1398 1399 1399 1400
1411 1409 1407 1405 1402 1400 1398 1397 1395 1393 1392 1390 1390 1389 1388 1386 1385 1384 1384 1383 1382 1382 1382 1381 1381 1381 1382 1383 1384 1384 1385 1385 1386 1388 1389 1390 1392 1393 1394 1395 1395 1396
1405 1403 1401 1399 1397 1395 1393 1392 1390 1388 1387 1386 1385 1384 1383 1382 1381 1380 1379 1379 1378 1378 1378 1377 1377 1377 1378 1379 1379 1380 1380 1381 1382 1384 1385 1386 1387 1389 1390 1391 1391 1392
1401 1399 1397 1395 1392 1390 1389 1387 1385 1384 1383 1382 1380 1379 1378 1377 1377 1376 1375 1375 1374 1374 1374 1373 1373 1373 1374 1374 1375 1375 1376 1377 1378 1380 1381 1381 1383 1385 1386 1387 1387 1388
1397 1395 1393 1391 1388 1386 1384 1383 1381 1379 1378 1377 1375 1374 1373 1373 1372 1372 1371 1370 1371 1370 1370 1369 1369 1370 1370 1370 1371 1371 1372 1373 1374 1376 1377 1377 1379 1381 1382 1383 1384 1384
1394 1392 1389 1387 1384 1382 1380 1378 1377 1375 1373 1372 1371 1370 1369 1368 1368 1367 1367 1367 1367 1367 1366 1366 1366 1366 1366 1367 1367 1367 1368 1369 1371 1372 1373 1374 1375 1377 1378 1379 1380 1381
1391 1388 1386 1384 1381 1379 1376 1374 1372 1371 1369 1368 1366 1366 1365 1364 1363 1364 1364 1363 1363 1363 1363 1363 1363 1362 1363 1363 1363 1363 1364 1365 1366 1368 1369 1371 1372 1373 1374 1376 1377 1378
1388 1385 1383 1380 1378 1375 1373 1370 1368 1366 1365 1364 1363 1362 1361 1360 1360 1360 1360 1360 1360 1360 1359 1359 1359 1359 1359 1359 1360 1360 1361 1361 1362 1364 1366 1367 1369 1370 1371 1372 1373 1374
1385 1382 1380 1377 1374 1372 1369 1367 1365 1363 1362 1360 1359 1358 1357 1356 1356 1356 1356 1356 1355 1355 1354 1354 1355 1355 1355 1355 1356 1356 1357 1358 1359 1360 1362 1364 1365 1366 1368 1369 1369 1370
1382 1379 1377 1374 1371 1369 1366 1364 1362 1360 1359 1358 1356 1355 1354 1353 1352 1352 1352 1351 1351 1350 1350 1351 1351 1352 1352 1352 1353 1353 1354 1355 1356 1357 1359 1360 1362 1363 1364 1365 1366 1367
1379 1376 1374 1371 1369 1366 1364 1362 1359 1358 1356 1355 1353 1352 1350 1350 1349 1348 1348 1347 1347 1347 1347 1347 1348 1348 1349 1349 1349 1350 1351 1352 1353 1354 1355 1357 1358 1360 1361 1362 1363 1364
1376 1374 1371 1369 1366 1364 1361 1359 1357 1355 1353 1351 1350 1348 1347 1346 1345 1345 1345 1344 1344 1343 1344 1344 1344 1345 1345 1346 1346 1347 1348 1349 1350 1351 1353 1354 1355 1357 1358 1359 1360 1361
1375 1372 1369 1367 1364 1362 1359 1357 1355 1352 1350 1348 1346 1345 1343 1343 1342 1342 1341 1341 1340 1340 1340 1341 1341 1341 1342 1343 1343 1344 1345 1346 1347 1348 1350 1351 1352 1354 1355 1356 1357 1358
1373 1370 1367 1365 1362 1360 1357 1355 1352 1350 1347 1345 1343 1341 1340 1339 1339 1338 1337 1337 1336 1336 1336 1336 1336 1337 1338 1339 1340 1341 1342 1343 1344 1345 1347 1348 1349 1350 1352 1353 1354 1355
1371 1368 1366 1363 1360 1357 1355 1352 1350 1347 1345 1342 1340 1338 1337 1336 1335 1335 1334 1333 1332 1331 1331 1331 1331 1332 1334 1335 1336 1338 1339 1340 1341 1342 1343 1344 1346 1347 1348 1349 1350 1351
1369 1366 1363 1361 1358 1355 1352 1350 1347 1345 1342 1340 1337 1336 1334 1333 1332 1332 1331 1330 1329 1328 1327 1326 1326 1327 1329 1331 1333 1334 1335 1336 1337 1338 1340 1341 1342 1343 1344 1346 1347 1348
1367 1364 1361 1358 1355 1353 1350 1347 1345 1342 1339 1337 1335 1333 1332 1331 1330 1329 1328 1327 1326 1325 1324 1323 1323 1323 1324 1326 1328 1330 1332 1333 1333 1335 1336 1337 1338 1339 1341 1342 1343 1344
1366 1362 1359 1356 1353 1350 1348 1345 1342 1340 1337 1335 1333 1331 1330 1329 1328 1327 1326 1325 1324 1323 1322 1321 1320 1320 1321 1322 1323 1325 1328 1329 1330 1331 1332 1333 1334 1335 1337 1338 1339 1341
1364 1361 1357 1354 1351 1348 1345 1343 1340 1338 1336 1334 1332 1330 1328 1327 1326 1325 1324 1323 1322 1321 1320 1319 1318 1319 1319 1320 1321 1322 1324 1326 1327 1327 1328 1329 1330 1331 1332 1334 1335 1337
1362 1359 1355 1352 1349 1346 1343 1341 1339 1336 1334 1332 1330 1329 1327 1326 1324 1323 1322 1321 1320 1319 1318 1318 1318 1318 1318 1318 1319 1320 1321 1322 1323 1324 1325 1326 1327 1328 1329 1331 1332 1334
1361 1357 1353 1350 1347 1344 1342 1339 1337 1335 1333 1331 1329 1328 1326 1324 1323 1322 1321 1320 1319 1318 1317 1317 1317 1317 1317 1317 1317 1318 1319 1319 1320 1321 1322 1323 1324 1325 1327 1328 1330 1331
1359 1356 1352 1349 1346 1343 1341 1338 1336 1334 1332 1330 1328 1327 1326 1324 1323 1322 1321 1320 1319 1318 1317 1317 1316 1316 1316 1316 1315 1316 1316 1316 1317 1318 1319 1321 1321 1323 1324 1325 1326 1328
1358 1355 1352 1348 1346 1343 1340 1338 1336 1334 1332 1330 1328 1327 1326 1325 1324 1323 1322 1320 1319 1318 1317 1316 1316 1316 1315 1315 1315 1315 1315 1315 1316 1316 1317 1318 1319 1320 1322 1323 1324 1325
1358 1355 1352 1348 1345 1343 1340 1338 1336 1334 1332 1330 1329 1327 1326 1325 1324 1322 1321 1320 1319 1318 1317 1316 1315 1315 1315 1314 1314 1314 1314 1314 1314 1315 1316 1316 1317 1318 1319 1320 1321 1322
1357 1354 1351 1348 1345 1343 1340 1338 1336 1334 1332 1330 1329 1328 1326 1325 1323 1322 1321 1320 1319 1317 1316 1315 1314 1313 1313 1313 1313 1313 1313 1313 1313 1314 1314 1315 1315 1316 1317 1317 1318 1319
Wind_Speed
33 32 32 29 26 25 27 30 34 35 37 37 37 36 32 32 35 37 39 37 33 31 31 31 33 33 32 30 29 29 30 31 31 30 28 27 27 27 27 27 28 27
35 33 32 32 31 31 33 37 38 38 38 38 37 35 33 35 37 39 39 35 30 29 28 29 31 31 28 27 26 26 28 30 30 28 25 25 25 25 25 26 27 27
39 37 37 38 39 38 38 38 36 36 36 36 33 30 32 35 37 38 35 29 25 25 24 26 28 28 26 24 23 24 25 28 29 26 22 22 22 22 23 24 25 26
33 30 29 31 33 35 35 35 36 36 35 33 29 29 31 33 35 33 28 23 22 23 22 23 25 25 24 23 22 23 25 26 26 25 22 21 20 21 22 22 23 24
26 24 28 33 36 37 36 35 35 32 30 30 31 31 32 32 30 25 21 21 22 21 20 20 22 24 24 23 23 23 24 25 25 24 22 21 20 21 22 21 21 22
26 30 35 37 34 31 29 28 27 24 24 25 27 28 29 30 28 23 21 22 21 21 20 18 21 25 25 23 22 23 25 26 25 24 23 23 21 21 22 21 21 20
29 34 34 30 26 24 24 25 26 25 25 25 26 26 27 28 28 25 22 21 21 20 19 17 18 22 24 22 21 22 24 25 26 25 25 23 22 21 22 21 21 21
30 31 28 26 27 29 30 31 32 32 31 31 30 29 28 27 26 24 22 21 21 20 18 16 16 18 20 20 21 21 22 23 25 25 24 22 21 21 21 20 20 20
28 28 26 26 29 31 31 32 32 31 30 29 27 25 24 24 24 23 22 21 19 19 18 19 17 15 15 16 16 18 20 22 24 25 23 22 21 20 19 18 19 20
27 27 26 27 28 29 29 29 28 26 23 21 21 20 19 19 19 20 20 19 19 20 21 21 20 17 15 14 12 13 15 17 20 24 23 21 20 19 17 16 17 19
25 25 26 26 27 28 27 27 26 24 21 20 21 22 20 17 16 18 19 21 23 24 23 22 21 19 17 16 14 13 14 14 15 17 18 19 19 18 17 15 15 16
25 25 25 25 25 25 25 25 25 24 23 23 23 23 23 20 19 20 21 23 25 26 26 25 23 21 20 18 16 15 16 15 14 15 17 18 19 18 17 15 15 16
24 24 24 25 24 23 23 23 23 23 24 24 23 23 23 22 21 21 23 25 27 29 29 27 26 25 23 21 19 17 16 17 16 17 19 20 20 20 18 16 16 16
24 23 23 23 22 22 22 22 23 24 24 24 22 21 21 21 21 22 24 27 29 31 31 31 29 28 27 25 23 20 19 18 18 19 20 21 22 21 19 18 18 18
23 23 23 23 23 23 23 23 24 24 24 24 23 20 18 18 20 22 24 27 29 30 31 32 33 32 31 29 27 24 22 21 21 21 22 23 23 23 22 20 19 20
25 25 25 25 25 25 25 25 25 25 25 25 24 20 17 15 16 18 20 23 24 26 27 29 33 35 34 32 30 27 25 24 24 24 24 25 25 25 25 23 21 22
27 27 27 27 27 26 26 26 26 25 25 24 22 18 15 14 13 14 14 16 18 20 22 24 27 31 33 34 33 31 28 27 27 27 27 27 27 27 27 25 23 22
29 29 29 30 29 28 28 27 26 25 23 21 19 16 14 12 11 11 11 11 13 15 17 20 21 23 26 30 33 33 31 29 29 29 29 29 28 28 27 26 25 24
31 31 32 32 31 30 28 27 25 23 21 20 17 15 13 12 10 10 9 8 9 10 11 15 17 15 15 20 25 29 30 29 29 29 29 29 29 28 27 27 26 25
33 33 33 33 31 30 28 26 24 22 20 18 17 15 14 13 11 10 10 10 10 9 7 9 11 10 9 11 15 19 23 25 26 26 27 27 26 26 25 25 26 26
34 34 33 32 31 29 27 25 23 21 19 18 17 16 15 15 14 14 14 15 15 14 11 7 5 6 7 8 9 13 17 20 22 23 24 24 23 24 23 23 25 27
34 34 33 32 30 29 26 25 23 21 20 19 17 17 17 17 16 16 16 16 16 16 14 10 4 3 4 4 6 9 12 16 19 20 21 22 22 22 23 22 23 25
34 34 33 32 30 28 26 25 23 22 20 19 18 18 17 17 15 14 13 12 12 13 13 10 6 4 4 5 6 7 7 10 13 15 16 19 20 21 20 20 21 21
33 33 32 31 30 27 26 24 22 21 19 18 17 16 15 14 12 11 10 10 11 12 12 11 7 4 4 6 7 7 8 9 10 12 14 16 17 18 18 18 19 19
32 30 30 30 28 26 24 22 21 19 17 16 16 14 13 12 11 12 11 9 10 11 13 12 8 4 3 4 4 5 8 9 10 11 12 13 14 16 17 18 19 20
29 28 28 28 26 25 23 21 19 18 16 15 14 12 11 12 13 13 13 11 11 11 12 12 9 7 6 6 5 6 8 10 11 12 12 13 15 16 18 19 20 21
Wind_Direction
307 305 304 299 292 291 291 293 295 296 296 296 297 299 293 285 285 287 289 287 283 279 272 262 256 253 255 260 264 265 265 264 262 259 255 254 256 258 259 261 260 258
300 296 292 292 293 292 290 293 295 294 293 293 294 294 286 281 283 286 289 287 283 280 275 267 259 254 255 259 262 264 263 261 259 255 249 249 253 256 258 260 260 259
298 293 288 288 292 292 291 292 292 291 291 294 294 287 278 278 283 287 289 284 278 278 278 274 263 253 253 256 259 263 262 259 253 247 243 244 250 256 259 260 260 259
304 300 294 294 293 293 293 293 292 292 292 291 285 278 277 280 285 289 289 280 276 278 280 280 269 257 254 256 258 258 258 256 249 244 243 244 246 252 257 261 262 259
299 294 296 298 297 296 296 295 296 296 292 286 282 282 283 283 282 287 287 279 276 278 281 279 269 262 258 259 259 256 254 252 246 244 245 244 244 248 255 262 265 261
289 293 299 301 301 301 299 298 298 296 291 287 285 284 282 278 274 275 277 275 275 279 282 276 266 261 258 258 259 256 250 246 243 244 245 244 245 249 255 258 261 260
298 303 306 307 305 301 298 297 296 294 291 289 288 286 285 281 272 269 275 276 277 280 281 279 268 259 256 256 259 257 250 244 241 241 243 244 246 248 250 252 254 255
306 307 309 307 303 299 298 298 297 296 294 292 292 292 292 286 274 270 276 279 278 279 282 282 273 260 256 257 258 257 252 246 240 236 239 243 246 248 247 248 250 251
307 307 306 304 302 301 302 300 298 297 295 293 293 293 293 288 276 272 277 280 279 280 280 276 268 258 250 251 255 255 252 249 239 232 236 244 248 249 248 247 248 248
308 308 307 305 304 304 304 303 303 304 302 300 302 302 299 288 276 275 278 276 272 272 271 266 261 257 247 241 244 247 249 250 242 234 235 243 247 248 246 247 249 248
311 311 309 308 306 305 305 306 307 309 308 307 305 303 298 288 281 281 277 268 264 264 265 262 257 257 253 245 238 232 233 240 241 236 233 237 240 242 242 246 250 251
315 314 312 310 308 307 306 307 307 307 305 303 299 296 293 287 280 278 275 270 267 266 264 260 256 256 256 251 244 234 229 229 230 227 226 228 232 235 239 245 250 253
318 316 315 313 310 308 308 307 307 306 306 305 302 296 292 287 281 276 274 272 270 269 266 260 256 254 255 253 249 243 237 232 230 227 227 229 232 234 240 247 250 251
320 318 316 314 312 310 310 309 307 307 308 309 307 300 292 285 281 276 271 269 269 268 266 261 257 253 251 253 252 248 244 241 239 236 234 235 237 239 245 251 252 250
321 319 318 316 315 314 312 311 310 308 310 312 312 308 299 287 279 276 273 271 269 268 265 260 256 252 249 250 252 252 250 249 248 246 244 244 244 246 250 255 255 250
323 321 320 318 317 316 313 313 313 311 312 315 315 313 307 296 286 279 275 274 272 271 267 260 254 251 249 249 251 254 255 255 255 254 253 253 253 254 255 259 257 250
324 323 322 321 320 319 317 317 319 319 319 320 320 318 314 306 296 288 281 277 274 273 272 266 258 252 249 248 249 252 256 258 259 259 258 258 258 258 258 260 258 249
327 326 327 328 328 327 326 327 329 328 328 328 326 325 323 317 312 306 296 287 280 276 274 273 268 258 250 247 246 247 251 254 257 259 259 258 258 259 258 259 257 249
331 331 333 335 336 335 335 336 337 336 337 336 334 336 336 336 336 331 324 318 306 294 281 275 274 268 254 245 243 242 244 247 250 251 253 254 255 256 256 255 253 246
335 337 338 339 341 341 342 343 343 343 344 343 344 349 351 354 357 357 359 359 351 343 327 293 280 271 254 241 238 238 238 240 242 243 246 249 251 252 252 249 245 242
340 342 342 343 345 347 348 349 350 352 354 353 356 360 2 6 11 13 17 20 18 14 7 346 301 269 250 234 234 242 242 237 237 238 240 244 246 248 250 248 244 244
345 346 345 348 350 351 353 355 357 359 1 2 5 9 12 15 20 23 24 25 24 17 8 1 352 306 277 260 262 269 257 241 236 237 239 241 243 245 246 246 245 244
348 347 346 349 352 354 357 359 1 4 7 8 10 16 22 22 23 28 29 27 24 15 3 356 351 337 313 291 281 278 260 238 234 234 233 235 238 240 244 246 247 246
349 348 348 351 354 357 360 2 4 9 12 15 15 20 25 19 10 12 18 21 21 13 0 349 341 337 312 278 268 265 256 245 239 235 231 231 234 236 239 242 244 245
351 351 352 355 357 2 5 6 9 13 17 19 19 19 21 16 5 1 1 4 11 11 1 347 326 300 287 280 271 268 259 249 243 243 243 242 242 242 241 242 242 242
353 354 357 360 1 5 10 12 13 16 17 17 18 19 20 19 14 11 7 5 6 7 1 347 321 282 274 279 272 265 263 255 247 246 248 250 251 252 252 250 248 245